Volver al catálogo

COSMOS 1867 COOLANT

ActivoLEO
NORAD 39668·DEBRIS·🇷🇺 Russia

Lanzado Jul 10, 1987 desde Baikonur Cosmodrome

Loading…

Próximos Pases (próximas 24 horas)

TLE

ActualizadoSource: Space-Track

Época: Sep 14, 2026, 05:31 UTC

1 39668U 87060AF  26257.22992293  .00000127  00000-0  81249-4 0  9991
2 39668  65.0085 117.7840 0019179 277.8025  82.0883 14.34056596649421

Sigue COSMOS 1867 COOLANT en tiempo real con AllMySat

Download on the App Store